FW4663 Weather Reports


time (UTC)temp
C
wind
direction
speed
KPH
gust
KPH
rain 1hr
cm
rain 24hr
cm
rain mn
cm
humidity
%
barometer
mb
20260505034552 17 155 0.0 0.0 0.00 0.00 0.00 76 1014.9
20260505033052 17 155 0.0 3.2 0.00 0.00 0.00 76 1014.9
20260505031553 17 156 0.0 4.8 0.00 0.00 0.00 75 1015.0
20260505030101 17 156 1.6 4.8 0.00 0.00 0.00 74 1014.7
20260505024556 17 156 0.0 4.8 0.00 0.00 0.00 74 1014.9
20260505023050 17 142 1.6 4.8 0.00 0.00 0.00 73 1014.8
20260505021555 18 149 0.0 4.8 0.00 0.00 0.00 72 1014.9
20260505020058 18 143 1.6 4.8 0.00 0.00 0.00 71 1014.7
20260505014548 18 159 3.2 4.8 0.00 0.00 0.00 69 1014.5
20260505013048 19 146 1.6 8.0 0.00 0.00 0.00 67 1014.3
20260505011547 20 145 3.2 6.4 0.00 0.00 0.00 65 1014.2
20260505010105 20 147 3.2 11.3 0.00 0.00 0.00 63 1014.3
20260505004546 21 147 6.4 11.3 0.00 0.00 0.00 62 1014.3
20260505003049 21 167 6.4 14.5 0.00 0.00 0.00 60 1014.7
20260505001545 22 138 6.4 11.3 0.00 0.00 0.00 57 1014.6
20260505000051 22 145 6.4 12.9 0.00 0.00 0.00 56 1014.8
20260504234542 22 139 12.9 19.3 0.00 0.00 0.00 54 1014.7
20260504233049 23 156 8.0 16.1 0.00 0.00 0.00 54 1014.8
20260504231539 23 194 4.8 16.1 0.00 0.00 0.00 53 1015.0
20260504230051 23 153 6.4 14.5 0.00 0.00 0.00 48 1015.1
20260504224556 24 178 4.8 16.1 0.00 0.00 0.00 48 1015.2
20260504223036 24 287 6.4 19.3 0.00 0.00 0.00 46 1015.3
20260504221535 25 138 8.0 24.1 0.00 0.00 0.00 45 1015.3
20260504220034 25 132 6.4 16.1 0.00 0.00 0.00 44 1015.7
20260504214541 25 150 6.4 19.3 0.00 0.00 0.00 44 1015.7
20260504213033 25 160 4.8 17.7 0.00 0.00 0.00 42 1015.7
20260504211531 25 202 4.8 14.5 0.00 0.00 0.00 40 1015.8
20260504210029 25 199 8.0 14.5 0.00 0.00 0.00 40 1015.8
20260504204526 26 196 6.4 16.1 0.00 0.00 0.00 40 1016.2
20260504203025 25 154 3.2 12.9 0.00 0.00 0.00 41 1016.2
20260504201524 25 244 3.2 24.1 0.00 0.00 0.00 39 1016.5
20260504200022 25 171 8.0 17.7 0.00 0.00 0.00 40 1016.8
20260504194518 25 244 6.4 16.1 0.00 0.00 0.00 40 1017.1
20260504193017 25 194 8.0 17.7 0.00 0.00 0.00 41 1017.3
20260504191515 25 138 11.3 19.3 0.00 0.00 0.00 41 1017.3
20260504190015 25 159 8.0 20.9 0.00 0.00 0.00 40 1017.4
20260504184522 25 146 8.0 20.9 0.00 0.00 0.00 43 1017.5
20260504183017 25 185 9.7 19.3 0.00 0.00 0.00 41 1017.6
20260504181509 25 275 9.7 20.9 0.00 0.00 0.00 43 1017.9
20260504180006 24 185 9.7 16.1 0.00 0.00 0.00 43 1018.0
20260504174506 24 221 3.2 17.7 0.00 0.00 0.00 42 1017.9
20260504173005 25 186 12.9 25.7 0.00 0.00 0.00 42 1018.2
20260504171503 24 190 11.3 16.1 0.00 0.00 0.00 44 1018.1
20260504081502 12 279 0.0 0.0 0.00 0.00 0.00 91 1018.2
20260504044537 15 249 0.0 3.2 0.00 0.00 0.00 79 1020.1
20260504043046 15 249 0.0 3.2 0.00 0.00 0.00 77 1020.1
20260504041536 15 249 0.0 0.0 0.00 0.00 0.00 75 1020.1
20260504040036 16 249 0.0 0.0 0.00 0.00 0.00 73 1020.2